Terminal Aerodrome Forecast
Issued by NWS

Home | Current Version | Previous Version | Text Only | Print | Product List | Glossary On
Versions: 1 2 3 4 5 6 7 8 9 10 11 12 13 14 15 16 17 18
010
FTUS43 KILX 271137 AAA
TAFDEC
TAF AMD
KDEC 271137Z 2712/2812 01006KT 4SM BR SCT003 OVC007
      TEMPO 2712/2714 3/4SM BR VV002
     FM271400 07006KT 6SM BR SCT015
     FM271700 09007KT P6SM SCT030
     FM280300 13007KT 4SM SHRA BR VCTS SCT025CB OVC050
     FM280600 19008KT 5SM BR VCSH BKN025=

USA.gov is the U.S. government's official web portal to all federal, state and local government web resources and services.